Regional Weather Roundup
Issued by NWS Newport/Morehead, NC

Current Version | Previous Version | Graphics & Text | Print | Product List | Glossary Off
Versions: 1 2 3 4 5 6 7 8 9 10 11 12 13 14 15 16 17 18 19 20 21 22 23 24 25 26 27 28 29 30 31 32 33 34 35 36 37 38 39 40 41 42 43 44 45 46 47 48 49 50

804
ASUS42 KMHX 281313
RWRMHX
WEATHER ROUNDUP FOR EASTERN NORTH CAROLINA
NATIONAL WEATHER SERVICE NEWPORT/MOREHEAD CITY NC
800 AM EST TUE FEB 28 2017

NOTE: "FAIR" INDICATES FEW OR NO CLOUDS BELOW 12,000 FEET
WITH NO SIGNIFICANT WEATHER AND/OR OBSTRUCTIONS TO VISIBILITY

NCZ015>017-031-032-045>047-102-103-281400-
NORTH COAST

CITY           SKY/WX    TMP DP  RH WIND       PRES   REMARKS
EDENTON        SUNNY     56  53  89 CALM      30.32S
ELIZABETH CITY SUNNY     58  55  90 CALM      30.33R
KITTY HAWK     NOT AVBL
MANTEO         SUNNY     59  57  94 CALM      30.34R

$$

NCZ045>047-081-094-103-104-281400-
CENTRAL COAST

CITY           SKY/WX    TMP DP  RH WIND       PRES   REMARKS
FRISCO         PTSUNNY   68  58  70 S8        30.33S HAZE

$$

NCZ095-097-098-100-101-281400-
SOUTHERN COAST

CITY           SKY/WX    TMP DP  RH WIND       PRES   REMARKS
BEAUFORT       MOSUNNY   64  62  93 SE9       30.32R
CEDAR ISLAND   NOT AVBL
JACKSONVILLE   PTSUNNY   60  60 100 CALM      30.31R
PINEY ISLAND   SUNNY    N/A N/A N/A SE8       30.33R
WILMINGTON     PTSUNNY   62  60  93 SE5       30.32R


$$

NCZ011>013-027>030-043-044-078>080-089-090>093-098-281400-
COASTAL PLAIN

CITY           SKY/WX    TMP DP  RH WIND       PRES   REMARKS
AHOSKIE          N/A     49  48  95 CALM      30.31S
CLINTON        CLOUDY    57  56  97 CALM      30.31R
ELIZABETHTOWN  PTSUNNY   56  56 100 CALM      30.31R
GOLDSBORO      MOSUNNY   59  59 100 E3        30.28S
GREENVILLE     SUNNY     59  54  82 CALM      30.31R
HAVELOCK       NOT AVBL
KENANSVILLE    CLOUDY    55  54  94 SE3       30.31R
KINSTON        SUNNY     59  55  88 CALM      30.32R
NEW BERN       MOSUNNY   59  58  96 S5        30.33R
RICHLANDS      MOSUNNY   57  57 100 SE3       30.32R
ROCKY MOUNT    SUNNY     53  52  96 CALM      30.31R
WASHINGTON     SUNNY     59  55  84 S6        30.31R
WHITEVILLE     PTSUNNY   57  55  92 CALM      30.30R

$$

AMZ130-135-150-152-154-156-158-170-250-252-270-ANZ085-086-088-633-658-670-281400-
MARINE OBSERVATIONS

STATION/POSITION TIME  TEMP    WIND        PRES    WAVE   SWELL
                       AIR SEA DIR/SP/G            HT/PER HT/PER
                 (UTC) (F)     (DEG/KT/KT) (MB)    (FT/S) (FT/S)
CHESAPEAKE LIGHT NOT AVBL
64 E VA BEACH    1250   57 49  170/  8/  8 1026.9    5/ 6   5/ 6
DUCK             1236   56 49  160/  9/  9 1026.4
2 E DUCK         1230      51                N/A     3/ 6
OREGON INLET     1236   59 57  120/  5/  6 1027.0
13E OREGON INLT  NOT AVBL
HATTERAS CG      1236   65 62  200/  4/  6 1026.8
DIAMOND BUOY     1250   70 72  190/ 12/ 14 1027.2    4/ 5   3/ 6
CAPE LOOKOUT     1200   61     100/  8/  9 1026.4
BEAUFORT LAB     1236   62 60  130/  8/  9 1025.9
30 SE NEW RVR IN 1208   64     100/  6/ 12 1026.3
30 SE NEW RVR IN 1243      65                N/A     5/ 5
27 SE WRIGHTSVLE 1208   65 63  180/ 10/ 16 1025.2
5 SE WRIGHTSVLE  1208   59 58   70/  8/ 12 1025.8
225 S CAPE HAT   1250   69 70  140/ 17/ 19 1027.2    4/ 8   2/ 8
41 SE CHARLESTON 1250   71 68  190/ 16/ 17 1025.1    6/ 6

$$




USA.gov is the U.S. government's official web portal to all federal, state and local government web resources and services.